Regional Weather Roundup
Issued by NWS

Home | Current Version | Previous Version | Text Only | Print | Product List | Glossary Off
Versions: 1 2 3 4 5 6 7 8 9 10 11 12 13 14 15 16 17 18 19 20 21 22 23 24 25 26 27 28 29 30 31 32 33 34 35 36 37 38 39 40 41 42 43 44 45 46 47 48 49 50

000
ASUS43 KDTX 210910
RWRMI
MICHIGAN HOURLY REGIONAL WEATHER ROUNDUP
NATIONAL WEATHER SERVICE DETROIT/PONTIAC MI
500 AM EDT SUN SEP 21 2014

NOTE: "FAIR" INDICATES FEW OR NO CLOUDS BELOW 12,000 FEET WITH NO
SIGNIFICANT WEATHER AND/OR OBSTRUCTION TO VISIBILITY.

MIZ047>049-052>055-059>063-066>070-074>076-081>083-211000-
SOUTHEAST LOWER MICHIGAN

CITY           SKY/WX    TMP DP  RH WIND       PRES   REMARKS
ADRIAN         CLOUDY    67  65  93 SW14      29.66F
ALMA           LGT RAIN  63  61  94 W7        29.60S
ANN ARBOR      CLOUDY    66  63  90 SW9       29.63F
BAD AXE        LGT RAIN  63  63 100 S7        29.59F
DETROIT CITY   LGT RAIN  67  63  87 SW8       29.63F FOG
DETROIT        CLOUDY    65  63  93 S12       29.64F
FLINT          TSTM      63  60  90 W6        29.62R FOG
GROSSE ILE     CLOUDY    66  63  88 S8        29.63F
HILLSDALE      LGT RAIN  68  68 100 SW9G17    29.64F
HOWELL         HVY RAIN  65  64  96 W7        29.61F

CITY           SKY/WX    TMP DP  RH WIND       PRES   REMARKS
JACKSON        LGT RAIN  67  65  93 SW15G22   29.62F
LAMBERTVILLE   CLOUDY    68  63  83 SW10G17   29.66F
LANSING        LGT RAIN  63  61  93 SW7       29.61F
LAPEER         NOT AVBL
MASON          HVY RAIN  63  61  94 W7G18     29.64R
MONROE         MOCLDY    66  64  94 SW12      29.63F
MT. CLEMENS    CLOUDY    65  65 100 S8        29.61F
PONTIAC        CLOUDY    65  62  90 S8        29.61F
PORT HOPE        N/A     65  62  90 S3        29.57F
PORT HURON     CLOUDY    64  64 100 S8        29.63F
TRI CITIES     LGT RAIN  63  59  87 SW7       29.60F
YPSILANTI      CLOUDY    69  63  81 S13       29.63F
$$
MIZ043>046-050>051-056>058-064>065-071>073-077>080-211000-
SOUTHWEST LOWER MICHIGAN

CITY           SKY/WX    TMP DP  RH WIND       PRES   REMARKS
BATTLE CREEK   CLOUDY    64  60  87 W13       29.65F
BENTON HARBOR  PTCLDY    63  59  87 W20G29    29.71R
BIG RAPIDS     CLOUDY    59  59  99 NW3       29.60S
COLDWATER      CLOUDY    69  67  94 W15G23    29.65F
HOLLAND        PTCLDY    63  59  87 W14G23    29.66R
GRAND RAPIDS   CLOUDY    63  63 100 W17       29.63S
KALAMAZOO      MOCLDY    65  62  90 W16G22    29.67S
MARSHALL       LGT RAIN  65  63  91 W12G31    29.63R
MUSKEGON       PTCLDY    60  56  86 W7        29.65S
$$
MIZ016>042-211000-
NORTHERN LOWER MICHIGAN

CITY           SKY/WX    TMP DP  RH WIND       PRES   REMARKS
ALPENA         CLOUDY    56  56 100 NE7       29.58F
BEAVER ISLAND  RAIN      56  55  98 CALM      29.62S
BELLAIRE       RAIN      56  54  92 NE5       29.56F
CADILLAC       CLOUDY    57  56  97 SW3       29.58S
CHARLEVOIX     RAIN      57  57 100 NE9       29.61F
FRANKFORT      CLOUDY    58  55  89 N9        29.58R
GAYLORD        TSTM      55  53  93 VRB7      29.59S FOG
GRAYLING       RAIN      59  59 100 SE6       29.57F
HARBOR SPRINGS HVY RAIN  56  55  95 CALM      29.61S
HOUGHTON LAKE  LGT RAIN  57  57 100 CALM      29.58S
MANISTEE       MOCLDY    57  55  94 NW9       29.58S
OSCODA         CLOUDY    62  62 100 CALM      29.56F FOG
PELLSTON       LGT RAIN  56  55  97 CALM      29.62R
TRAVERSE CITY  LGT RAIN  59  56  89 N6        29.57R
$$
MIZ007>008-015-211000-
EASTERN UPPER MICHIGAN

CITY           SKY/WX    TMP DP  RH WIND       PRES   REMARKS
KINROSS        CLOUDY    54  52  94 N8        29.62S
MACKINAC ISLAN CLOUDY    54  54 100 N6        29.61S FOG
NEWBERRY       CLOUDY    51  50  98 N12       29.63S
S. S. MARIE    CLOUDY    54  50  86 NE7       29.62R
$$
MIZ004>006-011>014-085-211000-
CENTRAL UPPER MICHIGAN

CITY           SKY/WX    TMP DP  RH WIND       PRES   REMARKS
MANISTIQUE     CLOUDY    52  51  99 N8        29.63S
ESCANABA       CLOUDY    54  52  94 N7        29.64F
MENOMINEE      CLOUDY    55  52  88 NE6       29.64S
SAWYER-GWINN   DRIZZLE   50  48  93 N12       29.70R
$$
MIZ001>003-009>011-084-211000-
WESTERN UPPER MICHIGAN

CITY           SKY/WX    TMP DP  RH WIND       PRES   REMARKS
IRON MOUNTAIN  CLOUDY    54  52  93 N6        29.67S
HOUGHTON       CLOUDY    49  45  86 N13       29.76R
COPPER HARBOR    N/A     48  45  89 NE13      29.76R
IRONWOOD       CLOUDY    48  48 100 N9        29.75R
$$

ABBREVIATIONS USED IN REMARKS
   TC - TEMPERATURE IN CELSIUS
  WCI - WIND CHILL INDEX
   HX - HEAT INDEX
  VSB - VISIBILITY




USA.gov is the U.S. government's official web portal to all federal, state and local government web resources and services.